This demonstration page uses our WeatherBlox Daily Observations layout. Learn more.

Left ArrowRight Arrow

40.92501, -98.34201

Hourly Observations for August 12, 2020

Temp ( °F °C ) Dew Point ( °F °C ) Humidity (%) Winds ( mph kmh ) Pressure ( in mb ) Visibility ( mi km ) Precip ( " mm )
12:53 am 00:53 Clear 79 26.1 66 18.9 65 65 NNW 12 19 29.96 1015 10 16 0.00 0.00
1:53 am 01:53 Clear 75 23.9 67 19.4 76 76 NNE 7 11 29.92 1013 10 16 0.00 0.00
2:53 am 02:53 Clear 75 23.9 65 18.3 71 71 SSE 9 15 29.88 1012 10 16 0.00 0.00
3:53 am 03:53 Clear 73 22.8 65 18.3 76 76 SSE 6 9 29.87 1011 10 16 0.00 0.00
4:53 am 04:53 Clear 71 21.7 65 18.3 81 81 SSE 7 11 29.91 1013 10 16 0.00 0.00
5:53 am 05:53 Clear 70 21.1 65 18.3 84 84 SE 6 9 29.91 1013 10 16 0.00 0.00
6:53 am 06:53 Sunny 70 21.1 65 18.3 84 84 SE 6 9 29.93 1013 10 16 0.00 0.00
7:53 am 07:53 Sunny 71 21.7 66 18.9 84 84 SSE 12 19 29.93 1013 10 16 0.00 0.00
8:53 am 08:53 Sunny 76 24.4 67 19.4 74 74 S 13 20 29.93 1013 10 16 0.00 0.00
9:53 am 09:53 Sunny 79 26.1 68 20 69 69 SSE 13 20 29.92 1013 10 16 0.00 0.00
10:53 am 10:53 Sunny 82 27.8 67 19.4 60 60 S 12 19 29.93 1014 10 16 0.00 0.00
11:53 am 11:53 Sunny 84 28.9 66 18.9 55 55 SSE 12 19 29.93 1013 10 16 0.00 0.00
12:53 pm 12:53 Sunny 86 30 68 20 55 55 SSE 14 22 29.92 1013 10 16 0.00 0.00
1:53 pm 13:53 Sunny 88 31.1 64 17.8 45 45 SSW 8 13 29.91 1013 10 16 0.00 0.00
2:53 pm 14:53 Sunny 89 31.7 63 17.2 42 42 VRB 7 11 29.91 1013 10 16 0.00 0.00
3:53 pm 15:53 Sunny 89 31.7 68 20 50 50 SE 12 19 29.90 1013 10 16 0.00 0.00
4:53 pm 16:53 Sunny 88 31.1 67 19.4 50 50 SSE 14 22 29.91 1013 10 16 0.00 0.00
5:53 pm 17:53 Sunny 87 30.6 69 20.6 55 55 SE 13 20 29.90 1013 10 16 0.00 0.00
6:53 pm 18:53 Sunny 85 29.4 68 20 57 57 SSE 16 26 29.90 1013 10 16 0.00 0.00
7:53 pm 19:53 Sunny 82 27.8 69 20.6 65 65 SSE 10 17 29.91 1013 10 16 0.00 0.00
8:53 pm 20:53 Clear 79 26.1 69 20.6 72 72 SSE 15 24 29.90 1013 10 16 0.00 0.00
9:53 pm 21:53 Clear 77 25 68 20 74 74 SSE 13 20 29.93 1014 10 16 0.00 0.00
10:53 pm 22:53 Clear 75 23.9 68 20 79 79 S 13 20 29.93 1014 10 16 0.00 0.00
11:53 pm 23:53 Clear 74 23.3 68 20 82 82 S 12 19 29.93 1014 10 16 0.00 0.00

Powered by AerisWeather